Home > Products > State Listing > Idaho Data
Latest:
 RWRID |
  [top]

000
ASUS45 KBOI 231510
RWRID
WEATHER ROUNDUP FOR IDAHO
NATIONAL WEATHER SERVICE BOISE ID
900 AM MDT WED APR 23 2014

NOTE: "FAIR" INDICATES FEW OR NO CLOUDS BELOW 12000 FEET
WITH NO SIGNIFICANT WEATHER AND/OR OBSTRUCTIONS TO VISIBILITY

IDZ012-014-231600-
SOUTHWEST IDAHO


CITY           SKY/WX    TMP DP  RH WIND       PRES   REMARKS
BOISE          PTSUNNY   43  29  57 CALM      30.02R
CALDWELL       PTSUNNY   37  27  65 E3        30.04R
MOUNTAIN HOME  SUNNY     40  30  67 S3        30.03R
$$

IDZ016-017-231600-
SOUTHCENTRAL IDAHO


CITY           SKY/WX    TMP DP  RH WIND       PRES   REMARKS
BURLEY         SUNNY     38  26  62 W18G24    30.00R WCI  28
JEROME         SUNNY     37  27  67 SW13      30.02R WCI  29
TWIN FALLS     SUNNY     40  26  57 SW14      30.02R WCI  32
$$

IDZ019>023-231600-
SOUTHEAST IDAHO


CITY           SKY/WX    TMP DP  RH WIND       PRES   REMARKS
IDAHO FALLS    PTSUNNY   34  29  82 SW16      29.93R WCI  24
POCATELLO      FLURRIES  35  30  82 SW20      29.98R WCI  24
REXBURG        CLOUDY    32  30  92 S9        29.92R WCI  24
$$

IDZ006-010-011-018-031-032-231600-
CENTRAL IDAHO MOUNTAINS


CITY           SKY/WX    TMP DP  RH WIND       PRES   REMARKS
MCCALL         CLOUDY    26  23  88 CALM      29.92R
HAILEY         MOSUNNY   36  12  38 CALM      29.95R
STANLEY          N/A     23  18  81 E3        29.94R
SALMON         PTSUNNY   39  21  48 SW12      29.91S WCI  32
CHALLIS        MOSUNNY   34  19  54 SE9       29.93R WCI  27
$$

IDZ002-004-006-007-026-231600-
NORTHERN IDAHO


CITY           SKY/WX    TMP DP  RH WIND       PRES   REMARKS
LEWISTON       CLOUDY    42  33  70 CALM      29.91R
LOWELL           N/A     41  38  89 CALM      29.97
COEUR D`ALENE  CLOUDY    34  34 100 CALM      29.86S
MULLAN PASS    SNOW      25  24  96 VRB6      29.75S VSB 1/2 WCI  18
$$




000
ASUS45 KBOI 231410
RWRID
WEATHER ROUNDUP FOR IDAHO
NATIONAL WEATHER SERVICE BOISE ID
800 AM MDT WED APR 23 2014

NOTE: "FAIR" INDICATES FEW OR NO CLOUDS BELOW 12000 FEET
WITH NO SIGNIFICANT WEATHER AND/OR OBSTRUCTIONS TO VISIBILITY

IDZ012-014-231500-
SOUTHWEST IDAHO


CITY           SKY/WX    TMP DP  RH WIND       PRES   REMARKS
BOISE          SUNNY     36  31  82 E5        30.01R WCI  32
CALDWELL       PTSUNNY   34  23  64 E3        30.03R
MOUNTAIN HOME  SUNNY     32  32  99 SW2       30.01R
$$

IDZ016-017-231500-
SOUTHCENTRAL IDAHO


CITY           SKY/WX    TMP DP  RH WIND       PRES   REMARKS
BURLEY         SUNNY     36  25  64 W21       29.98R WCI  25
JEROME         SUNNY     33  26  75 SW13      30.00R WCI  24
TWIN FALLS     SUNNY     35  25  66 S13       30.00R WCI  26
$$

IDZ019>023-231500-
SOUTHEAST IDAHO


CITY           SKY/WX    TMP DP  RH WIND       PRES   REMARKS
IDAHO FALLS    CLOUDY    33  29  85 SW15      29.90R WCI  23
POCATELLO      PTSUNNY   36  28  73 SW22      29.96R WCI  25
REXBURG        CLOUDY    31  30  96 S10       29.88R WCI  22
$$

IDZ006-010-011-018-031-032-231500-
CENTRAL IDAHO MOUNTAINS


CITY           SKY/WX    TMP DP  RH WIND       PRES   REMARKS
MCCALL         CLOUDY    24  21  88 CALM      29.91R
HAILEY         MOSUNNY   30  12  47 NW6       29.92R WCI  24
STANLEY          N/A     20  16  84 S5        29.92R WCI  13
SALMON         PTSUNNY   36  23  60 SW12      29.90R WCI  27
CHALLIS        MOSUNNY   31  18  58 SW7       29.91R WCI  24
$$

IDZ002-004-006-007-026-231500-
NORTHERN IDAHO


CITY           SKY/WX    TMP DP  RH WIND       PRES   REMARKS
LEWISTON       CLOUDY    42  31  64 NE5       29.90R
LOWELL         NOT AVBL
COEUR D`ALENE  CLOUDY    34  30  86 S7        29.86S WCI  28
MULLAN PASS    LGT SNOW  24  24 100 VRB3      29.76S FOG
$$




000
ASUS45 KBOI 231310
RWRID
WEATHER ROUNDUP FOR IDAHO
NATIONAL WEATHER SERVICE BOISE ID
700 AM MDT WED APR 23 2014

NOTE: "FAIR" INDICATES FEW OR NO CLOUDS BELOW 12000 FEET
WITH NO SIGNIFICANT WEATHER AND/OR OBSTRUCTIONS TO VISIBILITY

IDZ012-014-231400-
SOUTHWEST IDAHO


CITY           SKY/WX    TMP DP  RH WIND       PRES   REMARKS
BOISE          PTCLDY    33  29  85 E5        29.99R WCI  29
CALDWELL       CLEAR     30  21  69 E6        30.01S WCI  24
MOUNTAIN HOME  CLEAR     29  29  99 NW3       29.99R
$$

IDZ016-017-231400-
SOUTHCENTRAL IDAHO


CITY           SKY/WX    TMP DP  RH WIND       PRES   REMARKS
BURLEY         CLEAR     33  26  75 SW14G23   29.95R WCI  23
JEROME         CLEAR     31  26  82 SW9       29.96R WCI  23
TWIN FALLS     CLEAR     33  25  72 S14       29.97R WCI  23
$$

IDZ019>023-231400-
SOUTHEAST IDAHO


CITY           SKY/WX    TMP DP  RH WIND       PRES   REMARKS
IDAHO FALLS    LGT SNOW  33  29  85 SW18G26   29.87R FOG     WCI  22
POCATELLO      PTCLDY    34  26  72 SW22      29.92R WCI  22
REXBURG        FLURRIES  32  29  88 SW14      29.85R WCI  22
$$

IDZ006-010-011-018-031-032-231400-
CENTRAL IDAHO MOUNTAINS


CITY           SKY/WX    TMP DP  RH WIND       PRES   REMARKS
MCCALL         CLEAR     22  18  85 CALM      29.90R
HAILEY         PTCLDY    32  12  43 NW6       29.88R WCI  26
STANLEY          N/A     16  13  88 S5        29.90R WCI   9
SALMON         MOCLDY    34  21  60 SW6       29.88R WCI  29
CHALLIS        PTCLDY    30  16  56 SW6       29.89R WCI  24
$$

IDZ002-004-006-007-026-231400-
NORTHERN IDAHO


CITY           SKY/WX    TMP DP  RH WIND       PRES   REMARKS
LEWISTON       CLOUDY    42  29  59 CALM      29.89S
LOWELL         NOT AVBL
COEUR D`ALENE  CLOUDY    36  32  87 W5        29.86S WCI  32
MULLAN PASS    CLOUDY    24  22  91 VRB7      29.76R WCI  16
$$




000
ASUS45 KBOI 231210
RWRID
WEATHER ROUNDUP FOR IDAHO
NATIONAL WEATHER SERVICE BOISE ID
600 AM MDT WED APR 23 2014

NOTE: "FAIR" INDICATES FEW OR NO CLOUDS BELOW 12000 FEET
WITH NO SIGNIFICANT WEATHER AND/OR OBSTRUCTIONS TO VISIBILITY

IDZ012-014-231300-
SOUTHWEST IDAHO


CITY           SKY/WX    TMP DP  RH WIND       PRES   REMARKS
BOISE          MOCLDY    34  27  75 SE3       29.98R
CALDWELL       CLEAR     32  21  64 E3        30.01R
MOUNTAIN HOME  CLEAR     33  30  89 W8        29.97R WCI  26
$$

IDZ016-017-231300-
SOUTHCENTRAL IDAHO


CITY           SKY/WX    TMP DP  RH WIND       PRES   REMARKS
BURLEY         CLEAR     35  26  69 W20G25    29.91R WCI  24
JEROME         CLEAR     32  27  81 SW10      29.94R WCI  24
TWIN FALLS     CLEAR     35  25  66 SW14      29.94R WCI  26
$$

IDZ019>023-231300-
SOUTHEAST IDAHO


CITY           SKY/WX    TMP DP  RH WIND       PRES   REMARKS
IDAHO FALLS    CLOUDY    34  29  82 SW21G26   29.83R WCI  22
POCATELLO      CLEAR     34  27  75 SW23      29.88R WCI  22
REXBURG        FLURRIES  32  30  92 SW15G24   29.81R WCI  22
$$

IDZ006-010-011-018-031-032-231300-
CENTRAL IDAHO MOUNTAINS


CITY           SKY/WX    TMP DP  RH WIND       PRES   REMARKS
MCCALL         CLEAR     21  18  88 CALM      29.89S
HAILEY         CLEAR     32  12  43 N6        29.86R WCI  26
STANLEY          N/A     18  14  84 CALM      29.88R
SALMON         MOCLDY    37  23  56 CALM      29.85R
CHALLIS        PTCLDY    30  18  60 SW3       29.87R
$$

IDZ002-004-006-007-026-231300-
NORTHERN IDAHO


CITY           SKY/WX    TMP DP  RH WIND       PRES   REMARKS
LEWISTON       CLOUDY    42  28  57 CALM      29.89F
LOWELL         NOT AVBL
COEUR D`ALENE  CLOUDY    36  32  87 S6        29.86F WCI  31
MULLAN PASS    CLOUDY    24  23  96 VRB7G22   29.75F WCI  16
$$




000
ASUS45 KBOI 231110
RWRID
WEATHER ROUNDUP FOR IDAHO
NATIONAL WEATHER SERVICE BOISE ID
500 AM MDT WED APR 23 2014

NOTE: "FAIR" INDICATES FEW OR NO CLOUDS BELOW 12000 FEET
WITH NO SIGNIFICANT WEATHER AND/OR OBSTRUCTIONS TO VISIBILITY

IDZ012-014-231200-
SOUTHWEST IDAHO


CITY           SKY/WX    TMP DP  RH WIND       PRES   REMARKS
BOISE          PTCLDY    34  27  75 CALM      29.97R
CALDWELL       PTCLDY    36  21  55 CALM      29.99S
MOUNTAIN HOME  PTCLDY    33  32  97 NW8       29.96R WCI  26
$$

IDZ016-017-231200-
SOUTHCENTRAL IDAHO


CITY           SKY/WX    TMP DP  RH WIND       PRES   REMARKS
BURLEY         CLEAR     35  27  72 W16G28    29.89R WCI  25
JEROME         PTCLDY    33  28  81 SW16      29.91R WCI  23
TWIN FALLS     PTCLDY    35  27  72 SW15      29.92S WCI  25
$$

IDZ019>023-231200-
SOUTHEAST IDAHO


CITY           SKY/WX    TMP DP  RH WIND       PRES   REMARKS
IDAHO FALLS    CLOUDY    35  30  82 SW24G35   29.80R WCI  23
POCATELLO      CLEAR     35  27  72 SW15G28   29.87R WCI  25
REXBURG        FLURRIES  33  31  92 SW16G24   29.78R WCI  23
$$

IDZ006-010-011-018-031-032-231200-
CENTRAL IDAHO MOUNTAINS


CITY           SKY/WX    TMP DP  RH WIND       PRES   REMARKS
MCCALL         PTCLDY    23  20  88 CALM      29.89R
HAILEY         CLEAR     34  12  40 NW16G28   29.83R WCI  23
STANLEY          N/A     17  14  88 S5        29.87S WCI  10
SALMON         CLOUDY    37  19  48 CALM      29.83R
CHALLIS        MOCLDY    32  16  51 W12       29.85R WCI  23
$$

IDZ002-004-006-007-026-231200-
NORTHERN IDAHO


CITY           SKY/WX    TMP DP  RH WIND       PRES   REMARKS
LEWISTON       PTCLDY    41  27  57 CALM      29.90S
LOWELL         NOT AVBL
COEUR D`ALENE  CLEAR     34  30  86 CALM      29.86R
MULLAN PASS    CLOUDY    25  21  86 VRB7      29.76R WCI  17
$$




000
ASUS45 KBOI 231010
RWRID
WEATHER ROUNDUP FOR IDAHO
NATIONAL WEATHER SERVICE BOISE ID
400 AM MDT WED APR 23 2014

NOTE: "FAIR" INDICATES FEW OR NO CLOUDS BELOW 12000 FEET
WITH NO SIGNIFICANT WEATHER AND/OR OBSTRUCTIONS TO VISIBILITY

IDZ012-014-231100-
SOUTHWEST IDAHO


CITY           SKY/WX    TMP DP  RH WIND       PRES   REMARKS
BOISE          FAIR      34  28  79 S3        29.95R
CALDWELL       FAIR      36  23  60 NW6       29.98S WCI  31
MOUNTAIN HOME  FAIR      34  33  99 NW7       29.95R WCI  28
$$

IDZ016-017-231100-
SOUTHCENTRAL IDAHO


CITY           SKY/WX    TMP DP  RH WIND       PRES   REMARKS
BURLEY         FAIR      35  28  75 W20G29    29.87R WCI  24
JEROME         FAIR      34  29  82 SW17      29.90R WCI  23
TWIN FALLS     FAIR      36  27  69 SW13      29.92R WCI  27
$$

IDZ019>023-231100-
SOUTHEAST IDAHO


CITY           SKY/WX    TMP DP  RH WIND       PRES   REMARKS
IDAHO FALLS    CLOUDY    35  32  88 SW21G33   29.78R WCI  24
POCATELLO      PTCLDY    36  29  75 SW23      29.85R WCI  24
REXBURG        LGT SNOW  33  31  92 SW17      29.76R FOG     WCI  22
$$

IDZ006-010-011-018-031-032-231100-
CENTRAL IDAHO MOUNTAINS


CITY           SKY/WX    TMP DP  RH WIND       PRES   REMARKS
MCCALL         FAIR      23  20  88 CALM      29.88S
HAILEY         FAIR      36  12  38 NW9G20    29.81R WCI  29
STANLEY          N/A     21  16  81 CALM      29.87R
SALMON         FAIR      37  25  60 CALM      29.81S
CHALLIS        CLOUDY    34  18  52 W6        29.82R WCI  29
$$

IDZ002-004-006-007-026-231100-
NORTHERN IDAHO


CITY           SKY/WX    TMP DP  RH WIND       PRES   REMARKS
LEWISTON       FAIR      43  27  53 S7        29.90S
LOWELL         NOT AVBL
COEUR D`ALENE  FAIR      36  28  75 CALM      29.85R
MULLAN PASS    CLOUDY    25  21  86 VRB6G18   29.75R WCI  18
$$




000
ASUS45 KBOI 230910
RWRID
WEATHER ROUNDUP FOR IDAHO
NATIONAL WEATHER SERVICE BOISE ID
300 AM MDT WED APR 23 2014

NOTE: "FAIR" INDICATES FEW OR NO CLOUDS BELOW 12000 FEET
WITH NO SIGNIFICANT WEATHER AND/OR OBSTRUCTIONS TO VISIBILITY

IDZ012-014-231000-
SOUTHWEST IDAHO


CITY           SKY/WX    TMP DP  RH WIND       PRES   REMARKS
BOISE          CLEAR     35  30  82 CALM      29.94S
CALDWELL       CLEAR     36  25  64 NW6       29.98R WCI  31
MOUNTAIN HOME  CLEAR     34  34 100 W9        29.94S WCI  26
$$

IDZ016-017-231000-
SOUTHCENTRAL IDAHO


CITY           SKY/WX    TMP DP  RH WIND       PRES   REMARKS
BURLEY         PTCLDY    35  29  78 W22G29    29.85F WCI  23
JEROME         CLEAR     34  29  82 SW17      29.89S WCI  23
TWIN FALLS     CLEAR     36  28  73 SW13      29.91S WCI  27
$$

IDZ019>023-231000-
SOUTHEAST IDAHO


CITY           SKY/WX    TMP DP  RH WIND       PRES   REMARKS
IDAHO FALLS    CLOUDY    37  32  82 SW25G33   29.76R WCI  25
POCATELLO      CLOUDY    37  31  78 SW18G29   29.84R WCI  27
REXBURG        LGT SNOW  34  32  92 SW21G38   29.73R FOG     WCI  22
$$

IDZ006-010-011-018-031-032-231000-
CENTRAL IDAHO MOUNTAINS


CITY           SKY/WX    TMP DP  RH WIND       PRES   REMARKS
MCCALL         CLEAR     26  23  88 N3        29.88R
HAILEY         PTCLDY    36  19  51 NW10      29.78S WCI  28
STANLEY          N/A     24  18  77 CALM      29.86S
SALMON         CLOUDY    37  27  65 S3        29.82S
CHALLIS        CLOUDY    34  20  56 NW10      29.81S WCI  26
$$

IDZ002-004-006-007-026-231000-
NORTHERN IDAHO


CITY           SKY/WX    TMP DP  RH WIND       PRES   REMARKS
LEWISTON       CLOUDY    44  28  53 S8        29.90R
LOWELL         NOT AVBL
COEUR D`ALENE  CLEAR     36  28  75 S7        29.84R WCI  30
MULLAN PASS    MOCLDY    24  20  84 W8        29.74R WCI  15
$$




000
ASUS45 KBOI 230810
RWRID
WEATHER ROUNDUP FOR IDAHO
NATIONAL WEATHER SERVICE BOISE ID
200 AM MDT WED APR 23 2014

NOTE: "FAIR" INDICATES FEW OR NO CLOUDS BELOW 12000 FEET
WITH NO SIGNIFICANT WEATHER AND/OR OBSTRUCTIONS TO VISIBILITY

IDZ012-014-230900-
SOUTHWEST IDAHO


CITY           SKY/WX    TMP DP  RH WIND       PRES   REMARKS
BOISE          CLEAR     37  31  78 CALM      29.94R
CALDWELL       CLEAR     36  23  60 W6        29.97R WCI  31
MOUNTAIN HOME  CLEAR     34  34 100 NW5       29.94R WCI  30
$$

IDZ016-017-230900-
SOUTHCENTRAL IDAHO


CITY           SKY/WX    TMP DP  RH WIND       PRES   REMARKS
BURLEY         MOCLDY    37  31  78 W21G30    29.87R WCI  26
JEROME         PTCLDY    35  31  85 SW18      29.89R WCI  24
TWIN FALLS     CLEAR     36  29  75 SW20      29.91R WCI  25
$$

IDZ019>023-230900-
SOUTHEAST IDAHO


CITY           SKY/WX    TMP DP  RH WIND       PRES   REMARKS
IDAHO FALLS    CLOUDY    39  34  82 S24G32    29.75S WCI  28
POCATELLO      CLOUDY    38  33  82 SW21G31   29.83R WCI  28
REXBURG        CLOUDY    37  34  89 SW25G32   29.72S WCI  25
$$

IDZ006-010-011-018-031-032-230900-
CENTRAL IDAHO MOUNTAINS


CITY           SKY/WX    TMP DP  RH WIND       PRES   REMARKS
MCCALL         MOCLDY    26  23  88 NE3       29.87R FOG
HAILEY         PTCLDY    37  23  56 NW8       29.78R WCI  31
STANLEY          N/A     26  19  74 N6        29.86R WCI  19
SALMON         CLOUDY    36  27  69 CALM      29.82R
CHALLIS        CLOUDY    34  23  64 NW6       29.81R WCI  29
$$

IDZ002-004-006-007-026-230900-
NORTHERN IDAHO


CITY           SKY/WX    TMP DP  RH WIND       PRES   REMARKS
LEWISTON       CLEAR     44  27  51 SW7       29.89S
LOWELL         NOT AVBL
COEUR D`ALENE  CLEAR     34  32  93 S7        29.83R WCI  28
MULLAN PASS    MOCLDY    24  21  88 SW9G18    29.74R WCI  14
$$




000
ASUS45 KBOI 230710
RWRID
WEATHER ROUNDUP FOR IDAHO
NATIONAL WEATHER SERVICE BOISE ID
100 AM MDT WED APR 23 2014

NOTE: "FAIR" INDICATES FEW OR NO CLOUDS BELOW 12000 FEET
WITH NO SIGNIFICANT WEATHER AND/OR OBSTRUCTIONS TO VISIBILITY

IDZ012-014-230800-
SOUTHWEST IDAHO


CITY           SKY/WX    TMP DP  RH WIND       PRES   REMARKS
BOISE          CLEAR     37  32  82 CALM      29.93R
CALDWELL       CLEAR     37  25  60 N3        29.96S
MOUNTAIN HOME  CLEAR     36  36 100 W10       29.93R WCI  28
$$

IDZ016-017-230800-
SOUTHCENTRAL IDAHO


CITY           SKY/WX    TMP DP  RH WIND       PRES   REMARKS
BURLEY         FLURRIES  37  33  85 W25G36    29.85R WCI  25
JEROME         PTCLDY    36  33  89 SW22G28   29.88R WCI  25
TWIN FALLS     MOCLDY    38  31  76 SW20      29.90R WCI  28
$$

IDZ019>023-230800-
SOUTHEAST IDAHO


CITY           SKY/WX    TMP DP  RH WIND       PRES   REMARKS
IDAHO FALLS    CLOUDY    39  36  89 S21G28    29.75R WCI  29
POCATELLO      CLOUDY    38  34  85 SW22G33   29.82R WCI  27
REXBURG        CLOUDY    38  35  89 SW18G31   29.72S WCI  28
$$

IDZ006-010-011-018-031-032-230800-
CENTRAL IDAHO MOUNTAINS


CITY           SKY/WX    TMP DP  RH WIND       PRES   REMARKS
MCCALL         PTCLDY    27  25  92 CALM      29.86R
HAILEY         CLEAR     36  25  64 CALM      29.77R
STANLEY          N/A     28  19  69 NW9       29.84R WCI  19
SALMON         CLOUDY    37  25  60 N13G18    29.80R WCI  29
CHALLIS        CLOUDY    35  29  78 N7        29.79R WCI  29
$$

IDZ002-004-006-007-026-230800-
NORTHERN IDAHO


CITY           SKY/WX    TMP DP  RH WIND       PRES   REMARKS
LEWISTON       PTCLDY    45  29  53 VRB3      29.89R
LOWELL         NOT AVBL
COEUR D`ALENE  PTCLDY    36  30  80 CALM      29.81R
MULLAN PASS    CLOUDY    25  22  88 VRB7      29.73S WCI  17
$$




000
ASUS45 KBOI 230610
RWRID
WEATHER ROUNDUP FOR IDAHO
NATIONAL WEATHER SERVICE BOISE ID
1200 AM MDT WED APR 23 2014

NOTE: "FAIR" INDICATES FEW OR NO CLOUDS BELOW 12000 FEET
WITH NO SIGNIFICANT WEATHER AND/OR OBSTRUCTIONS TO VISIBILITY

IDZ012-014-230700-
SOUTHWEST IDAHO


CITY           SKY/WX    TMP DP  RH WIND       PRES   REMARKS
BOISE          PTCLDY    40  32  73 NW5       29.92R
CALDWELL       PTCLDY    37  27  65 NW5       29.95R WCI  34
MOUNTAIN HOME  MOCLDY    39  39  99 W12       29.91R WCI  32
$$

IDZ016-017-230700-
SOUTHCENTRAL IDAHO


CITY           SKY/WX    TMP DP  RH WIND       PRES   REMARKS
BURLEY         MOCLDY    37  34  89 SW21G33   29.83R WCI  26
JEROME         PTCLDY    37  34  89 SW18      29.86R WCI  27
TWIN FALLS     MOCLDY    39  33  79 SW22      29.87R WCI  29
$$

IDZ019>023-230700-
SOUTHEAST IDAHO


CITY           SKY/WX    TMP DP  RH WIND       PRES   REMARKS
IDAHO FALLS    CLOUDY    40  37  89 S21G29    29.74R WCI  30
POCATELLO      CLOUDY    39  35  86 SW25G33   29.80R WCI  28
REXBURG        CLOUDY    38  36  92 SW21G31   29.72R WCI  28
$$

IDZ006-010-011-018-031-032-230700-
CENTRAL IDAHO MOUNTAINS


CITY           SKY/WX    TMP DP  RH WIND       PRES   REMARKS
MCCALL         PTCLDY    28  26  92 CALM      29.85R
HAILEY         PTCLDY    34  32  93 N3        29.75R
STANLEY          N/A     29  23  78 NW3       29.80R
SALMON         CLOUDY    39  25  56 N10G16    29.76R WCI  32
CHALLIS        CLOUDY    37  31  78 N7        29.74R WCI  32
$$

IDZ002-004-006-007-026-230700-
NORTHERN IDAHO


CITY           SKY/WX    TMP DP  RH WIND       PRES   REMARKS
LEWISTON       CLOUDY    46  28  49 VRB3      29.88R
LOWELL         NOT AVBL
COEUR D`ALENE  PTCLDY    36  30  80 SW3       29.80R
MULLAN PASS    CLOUDY    26  23  88 SW9G26    29.73R WCI  17
$$




000
ASUS45 KBOI 230510
RWRID
WEATHER ROUNDUP FOR IDAHO
NATIONAL WEATHER SERVICE BOISE ID
1100 PM MDT TUE APR 22 2014

NOTE: "FAIR" INDICATES FEW OR NO CLOUDS BELOW 12000 FEET
WITH NO SIGNIFICANT WEATHER AND/OR OBSTRUCTIONS TO VISIBILITY

IDZ012-014-230600-
SOUTHWEST IDAHO


CITY           SKY/WX    TMP DP  RH WIND       PRES   REMARKS
BOISE          CLEAR     41  33  73 W7        29.89R
CALDWELL       PTCLDY    43  27  52 W10       29.93R
MOUNTAIN HOME  CLOUDY    41  41  99 W15       29.89R
$$

IDZ016-017-230600-
SOUTHCENTRAL IDAHO


CITY           SKY/WX    TMP DP  RH WIND       PRES   REMARKS
BURLEY         LGT RAIN  38  35  89 W20       29.80R WCI  28
JEROME         CLOUDY    37  35  92 SW21G29   29.83R WCI  26
TWIN FALLS     CLOUDY    40  32  73 W23G32    29.85R WCI  30
$$

IDZ019>023-230600-
SOUTHEAST IDAHO


CITY           SKY/WX    TMP DP  RH WIND       PRES   REMARKS
IDAHO FALLS    CLOUDY    40  37  89 SW24G31   29.73R WCI  29
POCATELLO      CLOUDY    41  36  82 SW18      29.79R
REXBURG        LGT RAIN  38  36  92 SW18G33   29.70R WCI  28
$$

IDZ006-010-011-018-031-032-230600-
CENTRAL IDAHO MOUNTAINS


CITY           SKY/WX    TMP DP  RH WIND       PRES   REMARKS
MCCALL         PTCLDY    30  26  85 CALM      29.84R
HAILEY         PTCLDY    36  34  93 CALM      29.73R
STANLEY          N/A     30  28  92 N7        29.78R WCI  23
SALMON         CLOUDY    39  34  81 CALM      29.73R
CHALLIS        CLOUDY    38  30  73 NW10      29.72R WCI  31
$$

IDZ002-004-006-007-026-230600-
NORTHERN IDAHO


CITY           SKY/WX    TMP DP  RH WIND       PRES   REMARKS
LEWISTON       PTCLDY    47  26  44 CALM      29.87R
LOWELL         NOT AVBL
COEUR D`ALENE  MOCLDY    39  28  65 NW3       29.79R
MULLAN PASS    CLOUDY    27  25  92 VRB6      29.72F WCI  20
$$




000
ASUS45 KBOI 230410
RWRID
WEATHER ROUNDUP FOR IDAHO
NATIONAL WEATHER SERVICE BOISE ID
1000 PM MDT TUE APR 22 2014

NOTE: "FAIR" INDICATES FEW OR NO CLOUDS BELOW 12000 FEET
WITH NO SIGNIFICANT WEATHER AND/OR OBSTRUCTIONS TO VISIBILITY

IDZ012-014-230500-
SOUTHWEST IDAHO


CITY           SKY/WX    TMP DP  RH WIND       PRES   REMARKS
BOISE          PTCLDY    44  33  65 W8        29.87R
CALDWELL       PTCLDY    43  28  56 W9        29.90R
MOUNTAIN HOME  PTCLDY    40  40  99 W13       29.87R WCI  33
$$

IDZ016-017-230500-
SOUTHCENTRAL IDAHO


CITY           SKY/WX    TMP DP  RH WIND       PRES   REMARKS
BURLEY         CLOUDY    36  34  92 SW15      29.79R WCI  27
JEROME         CLOUDY    40  37  89 W15       29.81R WCI  32
TWIN FALLS     CLOUDY    40  34  79 SW20G31   29.83R WCI  30
$$

IDZ019>023-230500-
SOUTHEAST IDAHO


CITY           SKY/WX    TMP DP  RH WIND       PRES   REMARKS
IDAHO FALLS    LGT RAIN  40  37  89 SW23      29.71R WCI  30
POCATELLO      CLOUDY    40  36  86 S18G26    29.77R WCI  31
REXBURG        CLOUDY    39  36  89 SW24G31   29.67R WCI  28
$$

IDZ006-010-011-018-031-032-230500-
CENTRAL IDAHO MOUNTAINS


CITY           SKY/WX    TMP DP  RH WIND       PRES   REMARKS
MCCALL         CLOUDY    32  26  78 CALM      29.82R
HAILEY         PTCLDY    37  36  93 SE12      29.72R WCI  30
STANLEY          N/A     31  29  92 CALM      29.76R
SALMON         CLOUDY    43  32  65 N5        29.71R
CHALLIS        LGT RAIN  39  35  86 NW10      29.71R WCI  32
$$

IDZ002-004-006-007-026-230500-
NORTHERN IDAHO


CITY           SKY/WX    TMP DP  RH WIND       PRES   REMARKS
LEWISTON       MOCLDY    49  26  41 W6        29.84R
LOWELL         NOT AVBL
COEUR D`ALENE  MOCLDY    43  34  70 S9        29.77R
MULLAN PASS    CLOUDY    27  25  92 VRB5      29.73R WCI  22
$$




    US Dept of Commerce
    National Oceanic and Atmospheric Administration
    National Weather Service
    1325 East West Highway
    Silver Spring, MD 20910
    Page Author: NWS Internet Services Team
Disclaimer
Information Quality
Credits
Glossary
Privacy Policy
Freedom of Information Act (FOIA)
About Us
Career Opportunities